Wetterdaten: Samstag, 03.06.2017
Datum Zeit Temp. A. Feuchte A. Luftdruck Regen Wind Richtung Richtung Sonnenschein Helligkeit Solar
03.06.2017 00:04 20,4 C 71 % 1012,6 hPa 0,0 l/m 0,5 km/h (0 Bft) S 170 0 min 0 lux 0 W/m
03.06.2017 00:10 20,4 C 71 % 1012,6 hPa 0,0 l/m 6,8 km/h (2 Bft) S 170 0 min 0 lux 0 W/m
03.06.2017 00:14 20,4 C 71 % 1012,6 hPa 0,0 l/m 8,1 km/h (2 Bft) S-SO22.5 160 0 min 0 lux 0 W/m
03.06.2017 00:19 20,4 C 71 % 1012,6 hPa 0,0 l/m 11,3 km/h (2 Bft) S-SO22.5 165 0 min 0 lux 0 W/m
03.06.2017 00:24 20,4 C 71 % 1012,6 hPa 0,0 l/m 7,9 km/h (2 Bft) S-SO22.5 150 0 min 0 lux 0 W/m
03.06.2017 00:29 20,3 C 71 % 1012,6 hPa 0,0 l/m 9,8 km/h (2 Bft) S-SO22.5 160 0 min 0 lux 0 W/m
03.06.2017 00:35 20,2 C 71 % 1012,6 hPa 0,0 l/m 8,1 km/h (2 Bft) S22.5 170 0 min 0 lux 0 W/m
03.06.2017 00:39 20,2 C 71 % 1012,6 hPa 0,0 l/m 7,0 km/h (2 Bft) S 170 0 min 0 lux 0 W/m
03.06.2017 00:44 20,2 C 71 % 1012,6 hPa 0,0 l/m 9,0 km/h (2 Bft) S-SO 155 0 min 0 lux 0 W/m
03.06.2017 00:49 20,2 C 72 % 1012,6 hPa 0,0 l/m 10,0 km/h (2 Bft) S-SO22.5 155 0 min 0 lux 0 W/m
03.06.2017 00:54 20,2 C 72 % 1012,6 hPa 0,0 l/m 7,0 km/h (2 Bft) S-SO 165 0 min 0 lux 0 W/m
03.06.2017 01:00 20,2 C 72 % 1012,6 hPa 0,0 l/m 4,5 km/h (1 Bft) S-SO 155 0 min 0 lux 0 W/m
03.06.2017 01:04 20,2 C 72 % 1012,6 hPa 0,0 l/m 6,3 km/h (2 Bft) S-SO 160 0 min 0 lux 0 W/m
03.06.2017 01:09 20,2 C 72 % 1012,6 hPa 0,0 l/m 7,6 km/h (2 Bft) S-SO22.5 160 0 min 0 lux 0 W/m
03.06.2017 01:14 20,1 C 74 % 1012,7 hPa 0,0 l/m 8,6 km/h (2 Bft) S-SO22.5 160 0 min 0 lux 0 W/m
03.06.2017 01:19 20,1 C 74 % 1011,6 hPa 0,0 l/m 5,7 km/h (2 Bft) S-SO22.5 160 0 min 0 lux 0 W/m
03.06.2017 01:24 20,1 C 74 % 1012,7 hPa 0,0 l/m 0,0 km/h (0 Bft) S-SO22.5 155 0 min 0 lux 0 W/m
03.06.2017 01:29 20,1 C 75 % 1011,6 hPa 0,0 l/m 8,7 km/h (2 Bft) S22.5 175 0 min 0 lux 0 W/m
03.06.2017 01:34 20,1 C 75 % 1011,6 hPa 0,0 l/m 7,9 km/h (2 Bft) S 180 0 min 0 lux 0 W/m
03.06.2017 01:39 20,1 C 75 % 1011,6 hPa 0,0 l/m 13,4 km/h (3 Bft) S22.5 170 0 min 0 lux 0 W/m
03.06.2017 01:44 20,1 C 74 % 1011,6 hPa 0,0 l/m 6,1 km/h (2 Bft) S-SO 165 0 min 0 lux 0 W/m
03.06.2017 01:49 20,1 C 74 % 1011,6 hPa 0,0 l/m 5,6 km/h (2 Bft) S-SO 165 0 min 0 lux 0 W/m
03.06.2017 01:54 20,2 C 75 % 1011,6 hPa 0,0 l/m 7,5 km/h (2 Bft) S-SO 165 0 min 0 lux 0 W/m
03.06.2017 01:59 20,2 C 75 % 1011,6 hPa 0,0 l/m 9,7 km/h (2 Bft) S-SO 165 0 min 0 lux 0 W/m
03.06.2017 02:04 20,2 C 75 % 1011,6 hPa 0,0 l/m 8,0 km/h (2 Bft) S22.5 185 0 min 0 lux 0 W/m
03.06.2017 02:09 20,2 C 75 % 1011,6 hPa 0,0 l/m 8,7 km/h (2 Bft) S-SW22.5 195 0 min 0 lux 0 W/m
03.06.2017 02:14 20,1 C 75 % 1011,6 hPa 0,0 l/m 10,1 km/h (2 Bft) S22.5 180 0 min 0 lux 0 W/m
03.06.2017 02:19 20,1 C 75 % 1011,6 hPa 0,0 l/m 4,5 km/h (1 Bft) S 185 0 min 0 lux 0 W/m
03.06.2017 02:24 20,0 C 75 % 1011,6 hPa 0,0 l/m 8,8 km/h (2 Bft) S 190 0 min 0 lux 0 W/m
03.06.2017 02:29 19,9 C 76 % 1011,6 hPa 0,0 l/m 12,7 km/h (3 Bft) S 185 0 min 0 lux 0 W/m
03.06.2017 02:34 19,9 C 76 % 1011,6 hPa 0,0 l/m 9,5 km/h (2 Bft) S 170 0 min 0 lux 0 W/m
03.06.2017 02:39 19,9 C 76 % 1011,6 hPa 0,0 l/m 5,1 km/h (1 Bft) S 170 0 min 0 lux 0 W/m
03.06.2017 02:44 19,9 C 76 % 1011,6 hPa 0,0 l/m 4,0 km/h (1 Bft) S-SO 165 0 min 0 lux 0 W/m
03.06.2017 02:49 19,9 C 76 % 1011,6 hPa 0,0 l/m 7,0 km/h (2 Bft) S 170 0 min 0 lux 0 W/m
03.06.2017 02:54 19,9 C 76 % 1011,6 hPa 0,0 l/m 8,7 km/h (2 Bft) S-SO22.5 160 0 min 0 lux 0 W/m
03.06.2017 02:59 19,8 C 76 % 1011,7 hPa 0,0 l/m 0,9 km/h (0 Bft) SO22.5 145 0 min 0 lux 0 W/m
03.06.2017 03:04 19,7 C 76 % 1011,7 hPa 0,0 l/m 1,0 km/h (0 Bft) SO22.5 140 0 min 0 lux 0 W/m
03.06.2017 03:09 19,7 C 76 % 1010,6 hPa 0,0 l/m 6,3 km/h (2 Bft) O-SO45 110 0 min 0 lux 0 W/m
03.06.2017 03:14 19,7 C 76 % 1010,6 hPa 0,0 l/m 1,2 km/h (1 Bft) O-SO22.5 105 0 min 0 lux 0 W/m
03.06.2017 03:19 19,4 C 77 % 1010,7 hPa 0,0 l/m 1,1 km/h (1 Bft) O-SO 110 0 min 0 lux 0 W/m
03.06.2017 03:25 19,4 C 77 % 1010,7 hPa 0,0 l/m 8,0 km/h (2 Bft) SO45 145 0 min 0 lux 0 W/m
03.06.2017 03:29 19,4 C 78 % 1011,7 hPa 0,0 l/m 8,5 km/h (2 Bft) S22.5 175 0 min 0 lux 0 W/m
03.06.2017 03:34 19,4 C 78 % 1011,7 hPa 0,0 l/m 0,9 km/h (0 Bft) SW 215 0 min 0 lux 0 W/m
03.06.2017 03:39 19,4 C 78 % 1011,7 hPa 0,0 l/m 6,5 km/h (2 Bft) S45 190 0 min 0 lux 0 W/m
03.06.2017 03:44 19,4 C 78 % 1011,7 hPa 0,0 l/m 7,5 km/h (2 Bft) S22.5 170 0 min 0 lux 0 W/m
03.06.2017 03:49 19,4 C 78 % 1011,7 hPa 0,0 l/m 7,3 km/h (2 Bft) S 170 0 min 0 lux 0 W/m
03.06.2017 03:55 19,4 C 78 % 1011,7 hPa 0,0 l/m 6,7 km/h (2 Bft) S 170 0 min 0 lux 0 W/m
03.06.2017 03:59 19,4 C 78 % 1011,7 hPa 0,0 l/m 7,8 km/h (2 Bft) S 175 0 min 0 lux 0 W/m
03.06.2017 04:04 19,4 C 78 % 1011,7 hPa 0,0 l/m 6,3 km/h (2 Bft) S-SO22.5 160 0 min 0 lux 0 W/m
03.06.2017 04:09 19,4 C 78 % 1011,7 hPa 0,0 l/m 7,6 km/h (2 Bft) S 175 0 min 0 lux 0 W/m
03.06.2017 04:15 19,4 C 78 % 1011,7 hPa 0,0 l/m 7,8 km/h (2 Bft) S 170 0 min 0 lux 0 W/m
03.06.2017 04:19 19,4 C 78 % 1011,7 hPa 0,0 l/m 6,7 km/h (2 Bft) S 175 0 min 0 lux 0 W/m
03.06.2017 04:24 19,2 C 78 % 1011,7 hPa 0,0 l/m 0,1 km/h (0 Bft) S 175 0 min 0 lux 0 W/m
03.06.2017 04:29 19,2 C 78 % 1011,7 hPa 0,0 l/m 0,9 km/h (0 Bft) S 175 0 min 0 lux 0 W/m
03.06.2017 04:34 19,2 C 78 % 1011,7 hPa 0,0 l/m 5,7 km/h (2 Bft) S 175 0 min 0 lux 0 W/m
03.06.2017 04:40 19,2 C 77 % 1011,7 hPa 0,0 l/m 7,1 km/h (2 Bft) S22.5 170 0 min 0 lux 0 W/m
03.06.2017 04:44 19,2 C 77 % 1011,7 hPa 0,0 l/m 7,6 km/h (2 Bft) S 170 0 min 0 lux 0 W/m
03.06.2017 04:49 19,2 C 77 % 1011,7 hPa 0,0 l/m 9,8 km/h (2 Bft) S 170 0 min 0 lux 0 W/m
03.06.2017 04:54 19,2 C 77 % 1011,7 hPa 0,0 l/m 10,8 km/h (2 Bft) S22.5 170 0 min 0 lux 0 W/m
03.06.2017 04:59 19,2 C 76 % 1011,7 hPa 0,0 l/m 8,6 km/h (2 Bft) S-SW22.5 200 0 min 0 lux 0 W/m
03.06.2017 05:04 19,2 C 76 % 1011,7 hPa 0,0 l/m 8,3 km/h (2 Bft) S22.5 190 0 min 0 lux 0 W/m
03.06.2017 05:09 19,2 C 76 % 1011,7 hPa 0,0 l/m 6,7 km/h (2 Bft) S 180 0 min 0 lux 0 W/m
03.06.2017 05:14 19,2 C 76 % 1011,7 hPa 0,0 l/m 9,1 km/h (2 Bft) S22.5 175 0 min 0 lux 0 W/m
03.06.2017 05:19 19,2 C 76 % 1011,7 hPa 0,0 l/m 5,9 km/h (2 Bft) S-SO 165 0 min 46 lux 0 W/m
03.06.2017 05:24 19,2 C 75 % 1011,7 hPa 0,0 l/m 7,9 km/h (2 Bft) S-SO22.5 155 0 min 46 lux 0 W/m
03.06.2017 05:29 19,2 C 75 % 1011,7 hPa 0,0 l/m 2,5 km/h (1 Bft) S-SO 150 0 min 100 lux 1 W/m
03.06.2017 05:34 19,1 C 75 % 1011,7 hPa 0,0 l/m 8,2 km/h (2 Bft) S22.5 180 0 min 144 lux 1 W/m
03.06.2017 05:39 19,1 C 75 % 1011,7 hPa 0,0 l/m 11,3 km/h (2 Bft) S-SW22.5 195 0 min 144 lux 1 W/m
03.06.2017 05:44 19,0 C 75 % 1011,7 hPa 0,0 l/m 5,0 km/h (1 Bft) S 185 0 min 144 lux 1 W/m
03.06.2017 05:49 18,9 C 76 % 1011,7 hPa 0,0 l/m 4,6 km/h (1 Bft) S 185 0 min 380 lux 3 W/m
03.06.2017 05:55 18,9 C 76 % 1011,7 hPa 0,0 l/m 0,0 km/h (0 Bft) S 185 0 min 380 lux 3 W/m
03.06.2017 05:59 18,8 C 76 % 1011,7 hPa 0,0 l/m 0,0 km/h (0 Bft) S 185 0 min 522 lux 4 W/m
03.06.2017 06:04 18,8 C 76 % 1011,7 hPa 0,0 l/m 0,0 km/h (0 Bft) S 185 0 min 522 lux 4 W/m
03.06.2017 06:09 18,8 C 76 % 1011,7 hPa 0,0 l/m 0,0 km/h (0 Bft) S 185 0 min 522 lux 4 W/m
03.06.2017 06:14 18,7 C 76 % 1011,7 hPa 0,0 l/m 0,0 km/h (0 Bft) S 185 0 min 522 lux 4 W/m
03.06.2017 06:19 18,7 C 76 % 1011,7 hPa 0,0 l/m 0,0 km/h (0 Bft) S 185 0 min 710 lux 5 W/m
03.06.2017 06:24 18,7 C 76 % 1011,7 hPa 0,0 l/m 5,1 km/h (1 Bft) S 185 0 min 759 lux 5 W/m
03.06.2017 06:29 18,7 C 76 % 1011,7 hPa 0,0 l/m 0,4 km/h (0 Bft) S 185 0 min 759 lux 5 W/m
03.06.2017 06:34 18,7 C 76 % 1011,7 hPa 0,0 l/m 5,4 km/h (2 Bft) S 185 0 min 1,12 klux 8 W/m
03.06.2017 06:40 18,7 C 77 % 1011,7 hPa 0,0 l/m 4,8 km/h (1 Bft) S 185 0 min 1,37 klux 9 W/m
03.06.2017 06:44 18,7 C 77 % 1011,7 hPa 0,0 l/m 4,3 km/h (1 Bft) S 185 0 min 1,03 klux 7 W/m
03.06.2017 06:49 18,7 C 77 % 1011,7 hPa 0,0 l/m 7,7 km/h (2 Bft) S 185 0 min 2,43 klux 17 W/m
03.06.2017 06:54 18,6 C 77 % 1011,7 hPa 0,0 l/m 6,8 km/h (2 Bft) S 185 0 min 2,43 klux 17 W/m
03.06.2017 06:59 18,6 C 77 % 1011,7 hPa 0,0 l/m 9,2 km/h (2 Bft) S-SW22.5 195 0 min 2,43 klux 17 W/m
03.06.2017 07:04 18,6 C 77 % 1011,7 hPa 0,0 l/m 8,7 km/h (2 Bft) S22.5 175 0 min 5,92 klux 40 W/m
03.06.2017 07:09 18,4 C 76 % 1011,7 hPa 0,0 l/m 7,6 km/h (2 Bft) S22.5 180 0 min 6,27 klux 43 W/m
03.06.2017 07:14 18,6 C 76 % 1011,7 hPa 0,0 l/m 0,2 km/h (0 Bft) S 180 0 min 6,27 klux 43 W/m
03.06.2017 07:19 18,6 C 76 % 1011,7 hPa 0,0 l/m 0,2 km/h (0 Bft) S 180 0 min 6,27 klux 43 W/m
03.06.2017 07:25 18,7 C 76 % 1010,7 hPa 0,0 l/m 0,2 km/h (0 Bft) S 180 0 min 10,6 klux 73 W/m
03.06.2017 07:29 18,7 C 76 % 1010,7 hPa 0,0 l/m 0,4 km/h (0 Bft) SO22.5 125 0 min 21,3 klux 146 W/m
03.06.2017 07:34 19,0 C 77 % 1010,7 hPa 0,0 l/m 0,6 km/h (0 Bft) SO 140 0 min 21,3 klux 146 W/m
03.06.2017 07:39 19,1 C 76 % 1010,7 hPa 0,0 l/m 0,0 km/h (0 Bft) SO 135 0 min 10,2 klux 70 W/m
03.06.2017 07:44 19,1 C 76 % 1010,7 hPa 0,0 l/m 4,0 km/h (1 Bft) SO 135 0 min 10,2 klux 70 W/m
03.06.2017 07:45 19,1 C 76 % 1010,7 hPa 0,0 l/m 4,0 km/h (1 Bft) SO 135 0 min 10,2 klux 70 W/m
03.06.2017 07:49 19,1 C 76 % 1010,7 hPa 0,0 l/m 5,4 km/h (2 Bft) S-SO22.5 155 0 min 14,9 klux 102 W/m
03.06.2017 07:54 19,1 C 76 % 1010,7 hPa 0,0 l/m 2,1 km/h (1 Bft) S-SO 165 0 min 14,9 klux 102 W/m
03.06.2017 07:59 19,6 C 74 % 1010,6 hPa 0,0 l/m 0,1 km/h (0 Bft) S 170 0 min 12,1 klux 83 W/m
03.06.2017 08:04 19,6 C 74 % 1011,7 hPa 0,0 l/m 0,0 km/h (0 Bft) S 170 0 min 20,3 klux 139 W/m
03.06.2017 08:09 19,8 C 74 % 1011,7 hPa 0,0 l/m 7,0 km/h (2 Bft) S 170 0 min 16,9 klux 116 W/m
03.06.2017 08:14 20,0 C 73 % 1011,6 hPa 0,0 l/m 5,7 km/h (2 Bft) S 180 0 min 16,9 klux 116 W/m
03.06.2017 08:19 20,0 C 73 % 1011,6 hPa 0,0 l/m 8,3 km/h (2 Bft) S22.5 190 0 min 14,7 klux 101 W/m
03.06.2017 08:24 20,0 C 73 % 1011,6 hPa 0,0 l/m 8,9 km/h (2 Bft) S-SW 205 0 min 14,7 klux 101 W/m
03.06.2017 08:30 20,1 C 72 % 1011,6 hPa 0,0 l/m 8,1 km/h (2 Bft) S-SW22.5 205 0 min 18,1 klux 124 W/m
03.06.2017 08:34 20,1 C 72 % 1011,6 hPa 0,0 l/m 7,0 km/h (2 Bft) S-SW22.5 205 0 min 18,7 klux 128 W/m
03.06.2017 08:39 20,1 C 71 % 1011,6 hPa 0,0 l/m 8,7 km/h (2 Bft) SW22.5 215 0 min 14,4 klux 98 W/m
03.06.2017 08:44 20,1 C 71 % 1011,6 hPa 0,0 l/m 15,6 km/h (3 Bft) SW22.5 235 0 min 14,4 klux 98 W/m
03.06.2017 08:49 19,9 C 74 % 1011,6 hPa 0,0 l/m 9,7 km/h (2 Bft) SW22.5 235 0 min 16,6 klux 114 W/m
03.06.2017 08:54 19,9 C 74 % 1011,6 hPa 0,0 l/m 9,3 km/h (2 Bft) SW45 220 0 min 16,6 klux 114 W/m
03.06.2017 08:59 20,1 C 74 % 1011,6 hPa 0,0 l/m 10,3 km/h (2 Bft) SW 230 0 min 16,6 klux 114 W/m
03.06.2017 09:04 20,5 C 73 % 1011,6 hPa 0,0 l/m 7,8 km/h (2 Bft) SW 225 0 min 28,5 klux 195 W/m
03.06.2017 09:09 20,5 C 73 % 1011,6 hPa 0,0 l/m 7,3 km/h (2 Bft) S22.5 190 0 min 28,5 klux 195 W/m
03.06.2017 09:15 20,6 C 72 % 1011,6 hPa 0,0 l/m 8,5 km/h (2 Bft) S-SW 195 0 min 29,6 klux 202 W/m
03.06.2017 09:19 20,7 C 71 % 1011,6 hPa 0,0 l/m 9,3 km/h (2 Bft) S-SW45 200 0 min 29,6 klux 202 W/m
03.06.2017 09:24 20,7 C 72 % 1011,6 hPa 0,0 l/m 0,9 km/h (0 Bft) S-SW 200 0 min 29,6 klux 202 W/m
03.06.2017 09:29 20,8 C 71 % 1011,6 hPa 0,0 l/m 1,0 km/h (0 Bft) S-SW 200 0 min 38,0 klux 260 W/m
03.06.2017 09:34 21,1 C 70 % 1011,6 hPa 0,0 l/m 3,7 km/h (1 Bft) S 180 5 min 51,9 klux 355 W/m
03.06.2017 09:39 21,2 C 69 % 1011,6 hPa 0,0 l/m 4,2 km/h (1 Bft) S 180 0 min 43,6 klux 298 W/m
03.06.2017 09:44 21,3 C 70 % 1011,6 hPa 0,0 l/m 8,3 km/h (2 Bft) S22.5 190 0 min 42,4 klux 290 W/m
03.06.2017 09:49 21,6 C 69 % 1011,6 hPa 0,0 l/m 9,2 km/h (2 Bft) SW45 235 5 min 59,6 klux 408 W/m
03.06.2017 09:54 21,9 C 68 % 1011,6 hPa 0,0 l/m 7,9 km/h (2 Bft) SW22.5 225 5 min 56,4 klux 386 W/m
03.06.2017 09:59 21,9 C 68 % 1011,6 hPa 0,0 l/m 8,9 km/h (2 Bft) SW22.5 215 5 min 62,9 klux 430 W/m
03.06.2017 10:04 22,4 C 67 % 1011,6 hPa 0,0 l/m 8,0 km/h (2 Bft) SW22.5 235 5 min 55,7 klux 381 W/m
03.06.2017 10:09 22,8 C 67 % 1011,6 hPa 0,0 l/m 10,7 km/h (2 Bft) SW45 220 5 min 64,9 klux 444 W/m
03.06.2017 10:14 23,1 C 63 % 1011,6 hPa 0,0 l/m 7,2 km/h (2 Bft) S-SW22.5 210 5 min 60,5 klux 414 W/m
03.06.2017 10:19 23,1 C 63 % 1011,6 hPa 0,0 l/m 7,4 km/h (2 Bft) S-SW22.5 195 5 min 64,8 klux 443 W/m
03.06.2017 10:24 23,6 C 64 % 1011,6 hPa 0,0 l/m 5,4 km/h (2 Bft) S 180 5 min 66,8 klux 457 W/m
03.06.2017 10:29 23,8 C 62 % 1011,6 hPa 0,0 l/m 5,4 km/h (2 Bft) S 180 5 min 66,8 klux 457 W/m
03.06.2017 10:34 23,9 C 61 % 1011,6 hPa 0,0 l/m 11,5 km/h (2 Bft) S-SO22.5 155 5 min 65,9 klux 451 W/m
03.06.2017 10:39 24,2 C 62 % 1011,6 hPa 0,0 l/m 8,2 km/h (2 Bft) S-SW22.5 200 5 min 68,5 klux 469 W/m
03.06.2017 10:44 24,2 C 62 % 1011,6 hPa 0,0 l/m 6,7 km/h (2 Bft) S-SW22.5 200 5 min 64,2 klux 439 W/m
03.06.2017 10:49 24,5 C 59 % 1011,6 hPa 0,0 l/m 1,1 km/h (1 Bft) S-SW 195 5 min 67,6 klux 462 W/m
03.06.2017 10:54 24,5 C 59 % 1011,6 hPa 0,0 l/m 0,3 km/h (0 Bft) S-SW 200 5 min 67,3 klux 460 W/m
03.06.2017 10:59 24,6 C 60 % 1010,6 hPa 0,0 l/m 9,6 km/h (2 Bft) SW22.5 215 5 min 68,5 klux 469 W/m
03.06.2017 11:04 24,6 C 60 % 1010,6 hPa 0,0 l/m 9,4 km/h (2 Bft) W45 280 5 min 62,4 klux 427 W/m
03.06.2017 11:09 24,2 C 58 % 1011,6 hPa 0,0 l/m 10,8 km/h (2 Bft) W-NW45 295 0 min 60,3 klux 412 W/m
03.06.2017 11:14 24,1 C 59 % 1010,6 hPa 0,0 l/m 0,2 km/h (0 Bft) W 265 0 min 50,4 klux 345 W/m
03.06.2017 11:19 24,4 C 59 % 1010,6 hPa 0,0 l/m 6,1 km/h (2 Bft) S 190 0 min 43,7 klux 299 W/m
03.06.2017 11:24 24,6 C 58 % 1010,6 hPa 0,0 l/m 10,6 km/h (2 Bft) S-SW45 205 0 min 44,0 klux 301 W/m
03.06.2017 11:29 24,6 C 58 % 1010,6 hPa 0,0 l/m 14,2 km/h (3 Bft) S22.5 185 0 min 48,1 klux 329 W/m
03.06.2017 11:34 24,7 C 58 % 1010,6 hPa 0,0 l/m 11,2 km/h (2 Bft) S-SW45 205 0 min 48,1 klux 329 W/m
03.06.2017 11:40 24,8 C 58 % 1010,6 hPa 0,0 l/m 14,0 km/h (3 Bft) S-SW45 195 0 min 49,9 klux 341 W/m
03.06.2017 11:44 24,8 C 58 % 1010,6 hPa 0,0 l/m 12,1 km/h (2 Bft) SW22.5 220 0 min 45,2 klux 309 W/m
03.06.2017 11:49 24,8 C 58 % 1010,6 hPa 0,0 l/m 11,9 km/h (2 Bft) SW45 220 0 min 44,7 klux 306 W/m
03.06.2017 11:54 24,8 C 57 % 1010,6 hPa 0,0 l/m 12,1 km/h (2 Bft) S22.5 185 0 min 47,1 klux 322 W/m
03.06.2017 11:59 24,8 C 56 % 1010,6 hPa 0,0 l/m 11,6 km/h (2 Bft) S 185 0 min 49,1 klux 336 W/m
03.06.2017 12:04 24,9 C 56 % 1010,6 hPa 0,0 l/m 8,7 km/h (2 Bft) S-SW45 195 0 min 54,4 klux 372 W/m
03.06.2017 12:09 25,0 C 57 % 1010,6 hPa 0,0 l/m 16,8 km/h (3 Bft) S45 185 0 min 53,5 klux 366 W/m
03.06.2017 12:14 25,0 C 55 % 1010,6 hPa 0,0 l/m 12,8 km/h (3 Bft) S-SO22.5 165 0 min 57,5 klux 393 W/m
03.06.2017 12:19 25,0 C 56 % 1010,6 hPa 0,0 l/m 15,2 km/h (3 Bft) S22.5 180 0 min 60,6 klux 415 W/m
03.06.2017 12:24 25,1 C 55 % 1010,6 hPa 0,0 l/m 16,0 km/h (3 Bft) S45 190 5 min 68,6 klux 469 W/m
03.06.2017 12:29 25,6 C 56 % 1010,6 hPa 0,0 l/m 14,5 km/h (3 Bft) S45 185 5 min 73,0 klux 499 W/m
03.06.2017 12:34 25,9 C 56 % 1010,6 hPa 0,0 l/m 15,1 km/h (3 Bft) SW22.5 220 5 min 83,3 klux 570 W/m
03.06.2017 12:39 26,3 C 56 % 1010,6 hPa 0,0 l/m 13,2 km/h (3 Bft) S-SW45 210 5 min 82,1 klux 562 W/m
03.06.2017 12:44 26,4 C 55 % 1010,6 hPa 0,0 l/m 12,5 km/h (2 Bft) SW22.5 215 5 min 77,6 klux 531 W/m
03.06.2017 12:49 26,3 C 55 % 1010,6 hPa 0,0 l/m 7,8 km/h (2 Bft) SW22.5 230 5 min 74,9 klux 512 W/m
03.06.2017 12:54 26,0 C 56 % 1010,6 hPa 0,0 l/m 10,1 km/h (2 Bft) S-SW22.5 200 0 min 32,6 klux 223 W/m
03.06.2017 12:59 25,5 C 55 % 1010,6 hPa 0,0 l/m 10,1 km/h (2 Bft) S-SW22.5 200 0 min 49,3 klux 337 W/m
03.06.2017 13:04 24,8 C 57 % 1010,6 hPa 0,0 l/m 17,5 km/h (3 Bft) W67.5 280 0 min 44,5 klux 304 W/m
03.06.2017 13:09 24,8 C 56 % 1010,6 hPa 0,0 l/m 11,6 km/h (2 Bft) SW22.5 215 0 min 47,0 klux 321 W/m
03.06.2017 13:14 25,1 C 57 % 1010,6 hPa 0,0 l/m 11,3 km/h (2 Bft) SW22.5 220 0 min 55,2 klux 378 W/m
03.06.2017 13:19 25,4 C 57 % 1010,6 hPa 0,0 l/m 14,0 km/h (3 Bft) SW22.5 230 0 min 52,7 klux 360 W/m
03.06.2017 13:24 25,8 C 57 % 1010,6 hPa 0,0 l/m 8,6 km/h (2 Bft) SW22.5 215 0 min 35,9 klux 246 W/m
03.06.2017 13:29 25,7 C 56 % 1010,6 hPa 0,0 l/m 14,0 km/h (3 Bft) SW45 225 0 min 36,3 klux 248 W/m
03.06.2017 13:35 25,6 C 56 % 1010,6 hPa 0,0 l/m 8,3 km/h (2 Bft) W-SW22.5 240 0 min 59,6 klux 408 W/m
03.06.2017 13:39 25,6 C 56 % 1010,6 hPa 0,0 l/m 14,4 km/h (3 Bft) SW22.5 225 4 min 70,9 klux 485 W/m
03.06.2017 13:44 26,1 C 56 % 1010,6 hPa 0,0 l/m 13,7 km/h (3 Bft) S-SW45 205 0 min 36,7 klux 251 W/m
03.06.2017 13:49 26,2 C 54 % 1010,6 hPa 0,0 l/m 12,1 km/h (2 Bft) S-SW45 210 0 min 31,1 klux 213 W/m
03.06.2017 13:54 26,0 C 57 % 1009,6 hPa 0,0 l/m 15,3 km/h (3 Bft) W-SW22.5 250 0 min 48,4 klux 331 W/m
03.06.2017 14:00 26,0 C 57 % 1009,6 hPa 0,0 l/m 19,9 km/h (4 Bft) SW45 220 0 min 39,1 klux 267 W/m
03.06.2017 14:04 26,2 C 56 % 1009,6 hPa 0,0 l/m 15,6 km/h (3 Bft) S-SW22.5 205 4 min 86,5 klux 592 W/m
03.06.2017 14:09 26,4 C 56 % 1009,6 hPa 0,0 l/m 15,8 km/h (3 Bft) S-SW22.5 195 0 min 39,0 klux 267 W/m
03.06.2017 14:14 26,5 C 56 % 1009,6 hPa 0,0 l/m 15,2 km/h (3 Bft) S-SW22.5 210 5 min 74,0 klux 506 W/m
03.06.2017 14:19 26,7 C 55 % 1009,6 hPa 0,0 l/m 14,7 km/h (3 Bft) S-SW45 205 5 min 84,3 klux 577 W/m
03.06.2017 14:24 26,8 C 56 % 1009,6 hPa 0,0 l/m 20,0 km/h (4 Bft) SW45 235 5 min 71,6 klux 490 W/m
03.06.2017 14:29 26,6 C 54 % 1009,6 hPa 0,0 l/m 17,8 km/h (3 Bft) SW67.5 235 0 min 66,0 klux 451 W/m
03.06.2017 14:34 26,8 C 52 % 1009,6 hPa 0,0 l/m 18,5 km/h (3 Bft) SW45 215 5 min 82,1 klux 562 W/m
03.06.2017 14:39 27,2 C 53 % 1009,6 hPa 0,0 l/m 15,3 km/h (3 Bft) W-SW45 240 0 min 52,8 klux 361 W/m
03.06.2017 14:45 27,1 C 51 % 1009,6 hPa 0,0 l/m 13,3 km/h (3 Bft) S-SW22.5 210 6 min 75,0 klux 513 W/m
03.06.2017 14:49 25,9 C 57 % 1009,6 hPa 0,0 l/m 17,8 km/h (3 Bft) W45 280 0 min 14,3 klux 98 W/m
03.06.2017 14:54 25,6 C 57 % 1009,6 hPa 0,0 l/m 16,6 km/h (3 Bft) W22.5 260 0 min 11,6 klux 79 W/m
03.06.2017 14:59 24,9 C 60 % 1009,6 hPa 0,0 l/m 15,6 km/h (3 Bft) W45 265 0 min 8,74 klux 60 W/m
03.06.2017 15:04 24,4 C 61 % 1009,6 hPa 0,0 l/m 19,3 km/h (3 Bft) W-NW22.5 290 0 min 5,15 klux 35 W/m
03.06.2017 15:09 23,6 C 64 % 1009,6 hPa 0,0 l/m 31,3 km/h (5 Bft) NW45 310 0 min 11,8 klux 81 W/m
03.06.2017 15:14 23,0 C 67 % 1009,6 hPa 0,0 l/m 33,4 km/h (5 Bft) W45 270 0 min 17,1 klux 117 W/m
03.06.2017 15:19 22,3 C 69 % 1009,6 hPa 0,0 l/m 32,9 km/h (5 Bft) W67.5 280 0 min 20,8 klux 142 W/m
03.06.2017 15:24 22,1 C 70 % 1009,6 hPa 0,0 l/m 27,1 km/h (5 Bft) W-NW22.5 295 0 min 22,0 klux 150 W/m
03.06.2017 15:30 21,8 C 74 % 1009,6 hPa 0,1 l/m 24,2 km/h (4 Bft) W45 280 6 min 69,6 klux 476 W/m
03.06.2017 15:34 22,0 C 75 % 1009,6 hPa 0,0 l/m 22,3 km/h (4 Bft) W-NW45 300 4 min 68,7 klux 470 W/m
03.06.2017 15:39 22,2 C 74 % 1010,6 hPa 0,0 l/m 18,8 km/h (3 Bft) W-NW22.5 295 5 min 68,7 klux 470 W/m
03.06.2017 15:44 22,3 C 75 % 1010,6 hPa 0,0 l/m 21,5 km/h (4 Bft) NW22.5 305 5 min 65,2 klux 446 W/m
03.06.2017 15:49 22,3 C 71 % 1010,6 hPa 0,0 l/m 17,3 km/h (3 Bft) N-NW45 330 0 min 47,9 klux 328 W/m
03.06.2017 15:54 22,2 C 68 % 1010,6 hPa 0,0 l/m 21,8 km/h (4 Bft) N-NW45 340 5 min 67,3 klux 460 W/m
03.06.2017 15:59 22,2 C 68 % 1010,6 hPa 0,0 l/m 17,3 km/h (3 Bft) NW45 320 0 min 34,1 klux 233 W/m
03.06.2017 16:04 22,4 C 68 % 1010,6 hPa 0,0 l/m 16,0 km/h (3 Bft) NW22.5 325 0 min 34,1 klux 233 W/m
03.06.2017 16:09 23,1 C 67 % 1010,6 hPa 0,0 l/m 20,3 km/h (4 Bft) NW22.5 315 5 min 68,9 klux 471 W/m
03.06.2017 16:15 23,3 C 67 % 1010,6 hPa 0,0 l/m 20,4 km/h (4 Bft) W-NW45 300 6 min 66,5 klux 455 W/m
03.06.2017 16:19 23,6 C 65 % 1009,6 hPa 0,0 l/m 13,0 km/h (3 Bft) NW22.5 320 4 min 60,2 klux 412 W/m
03.06.2017 16:24 23,9 C 64 % 1009,6 hPa 0,0 l/m 9,4 km/h (2 Bft) W-NW22.5 300 5 min 67,4 klux 461 W/m
03.06.2017 16:29 23,9 C 64 % 1009,6 hPa 0,0 l/m 18,0 km/h (3 Bft) NW22.5 305 5 min 59,5 klux 407 W/m
03.06.2017 16:34 24,0 C 63 % 1009,6 hPa 0,0 l/m 16,1 km/h (3 Bft) W-NW22.5 290 5 min 60,1 klux 411 W/m
03.06.2017 16:39 24,1 C 63 % 1009,6 hPa 0,0 l/m 15,5 km/h (3 Bft) NW22.5 315 0 min 47,8 klux 327 W/m
03.06.2017 16:44 24,1 C 62 % 1009,6 hPa 0,0 l/m 13,0 km/h (3 Bft) N-NW22.5 340 5 min 57,9 klux 396 W/m
03.06.2017 16:49 23,7 C 61 % 1009,6 hPa 0,0 l/m 12,8 km/h (3 Bft) NW22.5 315 0 min 17,6 klux 120 W/m
03.06.2017 16:54 23,1 C 63 % 1009,6 hPa 0,0 l/m 10,6 km/h (2 Bft) NW22.5 320 0 min 16,5 klux 113 W/m
03.06.2017 16:59 23,0 C 64 % 1009,6 hPa 0,0 l/m 10,1 km/h (2 Bft) NW22.5 315 0 min 22,9 klux 157 W/m
03.06.2017 17:04 23,0 C 64 % 1009,6 hPa 0,0 l/m 9,7 km/h (2 Bft) NW22.5 315 5 min 56,8 klux 389 W/m
03.06.2017 17:09 23,2 C 64 % 1009,6 hPa 0,0 l/m 12,0 km/h (2 Bft) N-NW22.5 335 0 min 38,7 klux 265 W/m
03.06.2017 17:14 23,2 C 63 % 1009,6 hPa 0,0 l/m 6,5 km/h (2 Bft) NW22.5 315 0 min 26,0 klux 178 W/m
03.06.2017 17:19 23,1 C 63 % 1009,6 hPa 0,0 l/m 8,9 km/h (2 Bft) W-NW22.5 290 5 min 64,5 klux 441 W/m
03.06.2017 17:24 23,4 C 63 % 1009,6 hPa 0,0 l/m 12,2 km/h (2 Bft) W-NW22.5 285 5 min 58,7 klux 402 W/m
03.06.2017 17:29 23,8 C 62 % 1009,6 hPa 0,0 l/m 11,0 km/h (2 Bft) W22.5 275 5 min 51,8 klux 354 W/m
03.06.2017 17:34 23,8 C 63 % 1009,6 hPa 0,0 l/m 11,4 km/h (2 Bft) W22.5 275 5 min 51,3 klux 351 W/m
03.06.2017 17:39 23,9 C 64 % 1009,6 hPa 0,0 l/m 13,4 km/h (3 Bft) W-NW22.5 285 0 min 43,4 klux 297 W/m
03.06.2017 17:44 23,9 C 64 % 1009,6 hPa 0,0 l/m 10,4 km/h (2 Bft) W-NW22.5 290 0 min 38,1 klux 261 W/m
03.06.2017 17:49 23,8 C 63 % 1009,6 hPa 0,0 l/m 9,3 km/h (2 Bft) W45 265 0 min 29,7 klux 203 W/m
03.06.2017 17:55 23,9 C 63 % 1009,6 hPa 0,0 l/m 9,3 km/h (2 Bft) W45 265 0 min 28,9 klux 198 W/m
03.06.2017 17:59 23,9 C 61 % 1009,6 hPa 0,0 l/m 8,4 km/h (2 Bft) NW22.5 320 0 min 26,9 klux 184 W/m
03.06.2017 18:04 23,7 C 65 % 1009,6 hPa 0,0 l/m 9,4 km/h (2 Bft) W 280 0 min 23,9 klux 163 W/m
03.06.2017 18:09 23,5 C 62 % 1009,6 hPa 0,0 l/m 9,7 km/h (2 Bft) NW22.5 305 0 min 22,0 klux 150 W/m
03.06.2017 18:14 23,4 C 63 % 1009,6 hPa 0,0 l/m 12,5 km/h (2 Bft) NW22.5 320 0 min 21,8 klux 149 W/m
03.06.2017 18:19 23,2 C 62 % 1009,6 hPa 0,0 l/m 9,7 km/h (2 Bft) W-NW22.5 295 0 min 21,4 klux 146 W/m
03.06.2017 18:24 23,2 C 63 % 1009,6 hPa 0,0 l/m 17,4 km/h (3 Bft) NW22.5 310 0 min 20,7 klux 142 W/m
03.06.2017 18:29 23,2 C 65 % 1009,6 hPa 0,0 l/m 16,7 km/h (3 Bft) NW45 315 0 min 20,8 klux 142 W/m
03.06.2017 18:34 22,9 C 65 % 1009,6 hPa 0,0 l/m 12,6 km/h (3 Bft) NW22.5 315 0 min 19,3 klux 132 W/m
03.06.2017 18:39 22,9 C 66 % 1009,6 hPa 0,0 l/m 13,5 km/h (3 Bft) NW45 305 0 min 19,1 klux 131 W/m
03.06.2017 18:44 22,9 C 66 % 1009,6 hPa 0,0 l/m 15,8 km/h (3 Bft) NW22.5 320 0 min 18,7 klux 128 W/m
03.06.2017 18:49 22,8 C 65 % 1009,6 hPa 0,0 l/m 14,3 km/h (3 Bft) NW22.5 325 0 min 17,0 klux 116 W/m
03.06.2017 18:54 22,8 C 65 % 1009,6 hPa 0,0 l/m 14,5 km/h (3 Bft) N-NW22.5 330 0 min 15,4 klux 105 W/m
03.06.2017 18:59 22,8 C 65 % 1009,6 hPa 0,0 l/m 19,8 km/h (3 Bft) N-NW22.5 335 0 min 11,3 klux 77 W/m
03.06.2017 19:04 22,6 C 64 % 1009,6 hPa 0,0 l/m 23,8 km/h (4 Bft) N-NW45 335 0 min 10,6 klux 73 W/m
03.06.2017 19:09 21,8 C 68 % 1009,6 hPa 0,0 l/m 27,4 km/h (5 Bft) N-NW22.5 330 0 min 9,4 klux 64 W/m
03.06.2017 19:14 21,8 C 68 % 1009,6 hPa 0,0 l/m 21,6 km/h (4 Bft) NW45 315 0 min 7,73 klux 53 W/m
03.06.2017 19:19 20,6 C 70 % 1009,6 hPa 0,0 l/m 23,4 km/h (4 Bft) NW45 315 0 min 6,00 klux 41 W/m
03.06.2017 19:24 20,4 C 69 % 1009,6 hPa 0,0 l/m 22,8 km/h (4 Bft) NW22.5 325 0 min 6,00 klux 41 W/m
03.06.2017 19:29 20,5 C 72 % 1009,6 hPa 0,0 l/m 18,3 km/h (3 Bft) NW22.5 320 0 min 1,56 klux 11 W/m
03.06.2017 19:34 20,4 C 72 % 1009,6 hPa 0,0 l/m 22,5 km/h (4 Bft) N-NW67.5 330 0 min 1,56 klux 11 W/m
03.06.2017 19:39 20,2 C 73 % 1009,6 hPa 0,0 l/m 12,8 km/h (3 Bft) NW22.5 325 0 min 2,94 klux 20 W/m
03.06.2017 19:44 20,1 C 74 % 1009,6 hPa 0,0 l/m 15,9 km/h (3 Bft) NW22.5 325 0 min 5,26 klux 36 W/m
03.06.2017 19:50 20,1 C 74 % 1009,6 hPa 0,1 l/m 19,6 km/h (3 Bft) NW45 320 0 min 5,79 klux 40 W/m
03.06.2017 19:54 19,6 C 75 % 1009,6 hPa 0,0 l/m 18,1 km/h (3 Bft) N-NW22.5 330 0 min 4,98 klux 34 W/m
03.06.2017 19:59 19,6 C 75 % 1009,6 hPa 0,0 l/m 13,4 km/h (3 Bft) NW22.5 320 0 min 4,98 klux 34 W/m
03.06.2017 20:05 19,5 C 76 % 1009,6 hPa 0,0 l/m 11,5 km/h (2 Bft) NW22.5 320 0 min 3,70 klux 25 W/m
03.06.2017 20:09 19,5 C 76 % 1009,6 hPa 0,0 l/m 13,5 km/h (3 Bft) NW22.5 310 0 min 3,70 klux 25 W/m
03.06.2017 20:14 19,6 C 76 % 1009,6 hPa 0,0 l/m 9,6 km/h (2 Bft) NW22.5 305 0 min 4,37 klux 30 W/m
03.06.2017 20:19 19,6 C 76 % 1009,6 hPa 0,0 l/m 9,8 km/h (2 Bft) NW22.5 305 0 min 4,37 klux 30 W/m
03.06.2017 20:24 19,5 C 77 % 1009,6 hPa 0,0 l/m 9,3 km/h (2 Bft) W-NW22.5 300 0 min 4,37 klux 30 W/m
03.06.2017 20:30 19,4 C 77 % 1009,6 hPa 0,0 l/m 10,1 km/h (2 Bft) W-NW22.5 295 0 min 2,14 klux 15 W/m
03.06.2017 20:34 19,4 C 77 % 1009,6 hPa 0,0 l/m 10,0 km/h (2 Bft) W-NW22.5 295 0 min 2,14 klux 15 W/m
03.06.2017 20:39 19,4 C 77 % 1009,6 hPa 0,0 l/m 7,3 km/h (2 Bft) W-NW 295 0 min 2,72 klux 19 W/m
03.06.2017 20:44 19,5 C 76 % 1009,6 hPa 0,0 l/m 7,3 km/h (2 Bft) W-NW 295 0 min 2,21 klux 15 W/m
03.06.2017 20:49 19,5 C 76 % 1009,6 hPa 0,0 l/m 9,1 km/h (2 Bft) W-NW22.5 300 0 min 2,12 klux 15 W/m
03.06.2017 20:54 19,5 C 77 % 1009,6 hPa 0,0 l/m 7,9 km/h (2 Bft) W-NW 300 0 min 2,12 klux 15 W/m
03.06.2017 20:59 19,5 C 77 % 1009,6 hPa 0,0 l/m 7,2 km/h (2 Bft) W-NW 295 0 min 1,56 klux 11 W/m
03.06.2017 21:04 19,5 C 76 % 1009,6 hPa 0,0 l/m 9,3 km/h (2 Bft) W-NW22.5 295 0 min 1,56 klux 11 W/m
03.06.2017 21:09 19,5 C 76 % 1009,6 hPa 0,0 l/m 9,0 km/h (2 Bft) W-NW 285 0 min 1,56 klux 11 W/m
03.06.2017 21:15 19,4 C 76 % 1009,6 hPa 0,0 l/m 10,8 km/h (2 Bft) W-NW22.5 290 0 min 1,56 klux 11 W/m
03.06.2017 21:19 19,3 C 77 % 1009,6 hPa 0,0 l/m 12,7 km/h (3 Bft) W-NW22.5 295 0 min 530 lux 4 W/m
03.06.2017 21:24 19,2 C 77 % 1009,7 hPa 0,0 l/m 10,3 km/h (2 Bft) W-NW22.5 295 0 min 349 lux 2 W/m
03.06.2017 21:29 19,2 C 77 % 1009,7 hPa 0,0 l/m 15,4 km/h (3 Bft) W-NW22.5 300 0 min 163 lux 1 W/m
03.06.2017 21:34 19,2 C 77 % 1010,7 hPa 0,0 l/m 13,8 km/h (3 Bft) W-NW22.5 300 0 min 163 lux 1 W/m
03.06.2017 21:40 19,3 C 77 % 1010,7 hPa 0,0 l/m 15,9 km/h (3 Bft) NW22.5 310 0 min 82 lux 0 W/m
03.06.2017 21:44 19,2 C 76 % 1010,7 hPa 0,0 l/m 20,7 km/h (4 Bft) NW22.5 315 0 min 66 lux 0 W/m
03.06.2017 21:49 19,2 C 76 % 1010,7 hPa 0,0 l/m 20,1 km/h (4 Bft) NW22.5 310 0 min 66 lux 0 W/m
03.06.2017 21:54 18,8 C 76 % 1010,7 hPa 0,0 l/m 14,4 km/h (3 Bft) NW22.5 310 0 min 66 lux 0 W/m
03.06.2017 21:59 18,8 C 76 % 1010,7 hPa 0,0 l/m 19,3 km/h (3 Bft) NW22.5 315 0 min 66 lux 0 W/m
03.06.2017 22:04 18,8 C 76 % 1010,7 hPa 0,0 l/m 12,6 km/h (3 Bft) NW22.5 305 0 min 9 lux 0 W/m
03.06.2017 22:09 18,6 C 77 % 1010,7 hPa 0,0 l/m 15,0 km/h (3 Bft) NW22.5 305 0 min 9 lux 0 W/m
03.06.2017 22:14 18,6 C 77 % 1010,7 hPa 0,1 l/m 14,6 km/h (3 Bft) W-NW45 300 0 min 9 lux 0 W/m
03.06.2017 22:19 18,6 C 77 % 1010,7 hPa 0,0 l/m 12,8 km/h (3 Bft) NW22.5 305 0 min 0 lux 0 W/m
03.06.2017 22:25 18,1 C 79 % 1010,7 hPa 0,1 l/m 11,9 km/h (2 Bft) NW22.5 310 0 min 0 lux 0 W/m
03.06.2017 22:29 18,1 C 79 % 1010,7 hPa 0,0 l/m 11,8 km/h (2 Bft) W-NW22.5 295 0 min 0 lux 0 W/m
03.06.2017 22:34 17,9 C 80 % 1010,7 hPa 0,0 l/m 9,0 km/h (2 Bft) W-NW 285 0 min 0 lux 0 W/m
03.06.2017 22:39 17,9 C 80 % 1010,7 hPa 0,1 l/m 12,3 km/h (2 Bft) W-NW22.5 285 0 min 0 lux 0 W/m
03.06.2017 22:44 17,7 C 81 % 1010,7 hPa 0,0 l/m 9,9 km/h (2 Bft) W22.5 280 0 min 0 lux 0 W/m
03.06.2017 22:50 17,7 C 81 % 1010,7 hPa 0,0 l/m 13,9 km/h (3 Bft) NW22.5 305 0 min 0 lux 0 W/m
03.06.2017 22:54 17,4 C 82 % 1010,7 hPa 0,1 l/m 15,8 km/h (3 Bft) NW22.5 310 0 min 0 lux 0 W/m
03.06.2017 22:59 17,2 C 82 % 1010,7 hPa 0,1 l/m 18,7 km/h (3 Bft) NW22.5 320 0 min 0 lux 0 W/m
03.06.2017 23:04 17,2 C 82 % 1010,7 hPa 0,0 l/m 18,3 km/h (3 Bft) NW22.5 315 0 min 0 lux 0 W/m
03.06.2017 23:09 17,0 C 81 % 1010,7 hPa 0,0 l/m 19,5 km/h (3 Bft) NW22.5 315 0 min 0 lux 0 W/m
03.06.2017 23:14 17,0 C 81 % 1010,7 hPa 0,0 l/m 19,5 km/h (3 Bft) NW22.5 315 0 min 0 lux 0 W/m
03.06.2017 23:19 17,0 C 81 % 1010,7 hPa 0,2 l/m 18,5 km/h (3 Bft) NW22.5 305 0 min 0 lux 0 W/m
03.06.2017 23:24 17,0 C 81 % 1010,7 hPa 0,1 l/m 20,3 km/h (4 Bft) W-NW22.5 300 0 min 0 lux 0 W/m
03.06.2017 23:29 16,7 C 79 % 1010,7 hPa 0,1 l/m 18,8 km/h (3 Bft) NW22.5 315 0 min 0 lux 0 W/m
03.06.2017 23:35 16,5 C 79 % 1010,7 hPa 0,0 l/m 15,3 km/h (3 Bft) NW22.5 310 0 min 0 lux 0 W/m
03.06.2017 23:39 16,5 C 79 % 1010,7 hPa 0,0 l/m 15,6 km/h (3 Bft) NW22.5 305 0 min 0 lux 0 W/m
03.06.2017 23:44 16,5 C 79 % 1010,7 hPa 0,0 l/m 18,0 km/h (3 Bft) NW22.5 305 0 min 0 lux 0 W/m
03.06.2017 23:49 16,5 C 79 % 1010,7 hPa 0,0 l/m 17,7 km/h (3 Bft) NW22.5 315 0 min 0 lux 0 W/m
03.06.2017 23:54 16,5 C 79 % 1010,7 hPa 0,0 l/m 17,8 km/h (3 Bft) NW22.5 320 0 min 0 lux 0 W/m
_ Min-Zeit 23:35 14:45 14:39 - 01:24 - - - - -
Minimum _ 16,5 C 51 % 1009,6 hPa - 0,0 km/h (0 Bft) - - - - -
_ Max-Zeit 14:39 22:54 01:14 23:19 15:14 - - 14:45 14:04 14:04
Maximum _ 27,2 C 82 % 1012,7 hPa 0,2 l/m 33,4 km/h
W (5 Bft)
- - 6 min 86,5 klux 592 W/m
Durchschnitt _ 21,3 C 70 % 1010,8 hPa #1,3 l/m 10,7 km/h (2 Bft) S - #3:54 h 21,5 klux 217 W/m